This is the latest recevied weather packets stored in our database for station/object HB9FHL-13. If no packets are shown the sender has not sent any weather packets the latest 10 day(s).
| Time | Temp. | Humidity | Pressure | Rain* | Wind** | Luminosity | Snow |
|---|---|---|---|---|---|---|---|
| 1777668486 | 17.22° C | - | 1023.1 hPa | 0 mm | - | - | - |
| 1777668186 | 16.67° C | - | 1023.8 hPa | 0 mm | - | - | - |
| 1777667885 | 16.67° C | - | 1024 hPa | 0 mm | - | - | - |
| 1777667585 | 17.22° C | - | 1027.9 hPa | 0 mm | - | - | - |
| 1777667284 | 16.67° C | - | 1026.6 hPa | 0 mm | - | - | - |
| 1777666984 | 16.11° C | - | 1022.3 hPa | 0 mm | - | - | - |
| 1777666715 | 16.67° C | - | 1021.2 hPa | 0 mm | - | - | - |
| 1777666683 | 16.67° C | - | 1021.2 hPa | 0 mm | - | - | - |
| 1777666383 | 15.56° C | - | 1021.5 hPa | 0 mm | - | - | - |
| 1777666082 | 16.67° C | - | 1025.2 hPa | 0 mm | - | - | - |
| 1777665786 | 16.67° C | - | 1021.7 hPa | 0 mm | - | - | - |
| 1777665481 | 16.11° C | - | 1026.3 hPa | 0 mm | - | - | - |
| 1777665179 | 16.67° C | - | 1024.5 hPa | 0 mm | - | - | - |
| 1777664879 | 16.67° C | - | 1026 hPa | 0 mm | - | - | - |
| 1777664578 | 16.67° C | - | 1024 hPa | 0 mm | - | - | - |
| 1777664278 | 16.11° C | - | 1018.4 hPa | 0 mm | - | - | - |
| 1777663977 | 16.67° C | - | 1026.2 hPa | 0 mm | - | - | - |
| 1777663677 | 15.56° C | - | 1024 hPa | 0 mm | - | - | - |
| 1777663377 | 17.22° C | - | 1025.2 hPa | 0 mm | - | - | - |
| 1777663076 | 16.67° C | - | 1019.8 hPa | 0 mm | - | - | - |
| 1777662775 | 15.56° C | - | 1026.1 hPa | 0 mm | - | - | - |
| 1777662478 | 16.11° C | - | 1021.7 hPa | 0 mm | - | - | - |
| 1777662174 | 16.11° C | - | 1023.8 hPa | 0 mm | - | - | - |
| 1777661874 | 17.22° C | - | 1026.6 hPa | 0 mm | - | - | - |
| 1777661574 | 16.67° C | - | 1023.7 hPa | 0 mm | - | - | - |
* Rain since midnight (hover to see other rain measurements)
** Current wind speed in m/s (hover to see current wind gust speed)